Kalgoorlie-Boulder Airport

Airport
ICAO code: 
YPKG
IATA Code: 
KGI
Summary
ICAO Region: 
APAC
Territory: 
Location: 
Kalgoorlie, Western Australia
Serving: 
Kalgoorlie
Elevation: 
1203 ft
Coordinates: 
Aerial View: 
30° 47' 4.852" S, 121° 27' 35.879" E
Metar
Observation
YPKG 240632Z AUTO 18015G25KT 9999 // NCD 32/12 Q1004
Station
Kalgoorlie Boulder Amo
Date/Time
2022-01-24 06:32:00
Wind direction
180°
Wind speed
15 kts
Lowest cloud amount
no clouds detected
Temperature
32°C
Dew point
12°C
Humidity
29%
QNH
1004 hPa
Weather condition
n/a

Airport located 7 km from the center of Kalgoorlie, Western Australia.

Climatology

Hot, semi-arid/Steppe climate (Köppen climate classification BSh) - hot, sometimes extremely hot summers and mild to warm winters, with low annual precipitation.

Runways

Designator Length Width Surface Rops
18/36 1200 18 ASP No/No
11/29 2000 45 ASP No/No
Airport map: 
Aerial View: 

Accidents and Serious Incidents at or in the vicinity of YPKG

SKYbrary Partners:

Safety knowledge contributed by: